Temp
3 3 3 4 3 3 3 2 2 3 3 3 3 3 2 3 3 2 2 2 2 3 4 6 6 7 7 6 7 10 10 10 9 10 10 10 10 11 10 11 12 12 13 15 15 16 15
3 3 3 3 2 2 2 2 3 2 2 2 3 2 2 3 2 2 2 2 2 3 4 5 6 7 6 6 11 10 10 10 10 10 10 10 11 12 12 12 11 13 14 14 15 14 14
3 3 2 2 2 2 3 3 2 2 2 1 2 2 2 2 2 2 2 2 3 3 4 5 6 6 5 8 9 10 10 10 10 10 10 11 11 12 12 12 14 13 12 13 13 14 14
3 2 2 2 2 3 2 2 2 1 1 1 1 2 2 2 2 2 2 2 3 3 4 5 5 6 5 9 9 9 10 10 10 10 11 11 11 11 12 13 13 12 11 11 13 14 14
2 2 2 2 2 2 2 2 1 1 1 1 1 1 2 2 2 2 2 2 3 3 4 5 5 5 6 8 8 9 9 10 10 10 10 10 10 11 11 10 10 11 10 10 11 13 13
2 2 2 2 2 2 1 1 1 1 1 1 1 1 1 1 1 2 2 2 3 4 4 3 5 5 5 7 9 9 9 10 10 10 9 9 9 9 9 9 9 10 9 10 10 13 12
2 2 1 2 2 2 1 1 1 1 1 1 1 0 1 1 1 1 1 1 2 3 3 4 5 6 8 8 9 9 9 10 9 10 9 8 9 10 10 11 11 11 12 11 11 12 11
1 1 1 2 2 2 1 1 1 1 1 1 0 0 1 1 2 2 1 1 1 2 3 4 4 5 8 8 8 9 9 10 10 8 9 9 9 10 10 10 10 11 11 10 10 11 11
1 1 1 1 1 2 1 1 1 1 1 0 0 1 1 1 2 2 1 1 1 2 1 3 2 4 8 9 8 8 9 10 9 8 8 9 10 11 10 10 10 10 9 9 9 9 10
1 1 1 1 1 1 1 0 0 1 0 0 1 2 2 2 1 1 2 2 1 2 3 4 5 6 8 9 8 9 9 10 9 8 9 9 11 10 10 9 10 9 10 10 9 8 7
1 1 0 0 0 1 0 0 0 1 0 1 1 2 2 1 1 1 2 2 2 1 4 4 6 7 8 8 8 8 9 10 9 9 9 9 9 9 9 10 10 9 9 9 9 7 5
0 1 0 0 0 0 0 0 0 0 1 2 2 2 2 1 2 2 2 2 2 1 4 4 5 7 7 8 8 8 9 10 11 10 10 9 10 10 9 9 9 9 8 6 6 5 2
0 0 0 0 0 0 -0 0 0 1 2 2 2 3 2 2 2 2 2 2 0 2 3 4 6 8 8 7 8 8 8 9 7 7 6 9 9 9 9 8 8 8 6 3 3 4 5
0 0 0 0 0 -0 -0 0 0 1 2 2 2 3 2 3 2 2 2 2 2 4 3 5 7 7 7 8 8 7 8 7 8 6 5 6 7 8 9 8 7 7 6 3 6 4 5
0 0 0 0 -0 -0 -0 -0 0 1 2 2 3 3 2 2 2 2 2 2 2 3 3 7 8 6 7 7 7 7 7 8 8 8 6 4 7 8 8 9 8 7 5 7 5 5 1
0 -0 -0 -0 -0 -0 -1 -1 0 1 3 4 3 3 2 2 2 2 2 4 3 3 7 7 5 6 6 7 7 7 7 9 8 8 8 7 6 8 9 9 9 8 7 4 -0 -0 4
-0 -0 -0 -1 -1 -0 -1 -1 2 1 3 3 4 3 2 2 2 2 3 3 5 6 8 8 6 7 7 7 7 8 7 8 8 8 9 9 5 6 8 7 6 6 6 6 4 2 3
-0 -0 -0 -1 -0 -1 -1 -0 2 2 3 4 3 -0 3 3 2 0 3 3 4 6 7 8 7 7 7 8 7 8 6 7 9 8 8 9 5 1 6 7 7 6 6 5 1 3 2
-0 -0 1 -0 -1 -1 -1 -0 2 4 3 3 3 3 4 4 4 4 5 6 7 8 9 10 8 8 8 7 7 8 7 8 9 8 8 8 3 1 6 5 6 5 6 6 5 4 0
-1 -0 1 2 2 2 1 1 2 3 4 3 3 0 4 4 4 4 4 5 7 9 8 8 8 8 9 8 8 7 7 7 9 9 10 9 4 3 4 5 3 2 5 6 5 2 4
-1 -1 1 2 2 2 2 1 2 2 4 3 3 2 2 1 4 5 5 5 7 7 8 9 9 9 9 9 8 7 7 7 8 9 8 7 2 0 3 5 5 5 5 5 4 6 4
0 -1 -1 0 2 2 2 1 1 2 3 2 2 2 2 2 4 6 5 6 7 7 7 8 7 9 10 8 7 7 6 6 7 7 6 5 2 2 3 5 4 3 5 5 6 6 7
2 -1 -1 -1 2 2 2 1 1 1 1 1 1 2 2 4 4 5 6 8 8 8 8 7 8 9 8 7 7 7 9 9 7 6 5 5 3 2 3 5 5 5 6 7 6 6 7
3 -1 -1 -2 -0 1 1 1 -2 0 1 1 0 1 2 3 3 6 8 8 7 8 7 7 8 8 7 7 8 8 8 7 7 7 7 6 5 3 3 3 6 10 10 9 8 8 8
4 -0 -1 -1 -1 -1 0 -1 -1 -1 0 1 0 1 1 3 3 6 6 7 7 8 7 7 7 7 7 7 6 6 7 7 7 7 7 7 6 5 5 4 8 9 10 10 9 9 8
3 2 -1 -1 -2 -2 -2 -2 -2 -2 0 1 0 0 1 1 3 3 4 7 6 6 7 7 7 7 7 5 6 7 7 8 7 6 7 7 6 5 6 6 7 10 11 10 9 7 9
3 2 -0 -1 -1 -2 -2 -2 -2 -2 -2 0 -1 -0 0 1 2 4 4 6 8 7 5 7 7 6 6 4 5 5 6 8 7 7 7 6 6 6 6 7 7 8 9 9 9 10 10
1 2 -1 -1 -1 -2 -2 -2 -2 -2 -2 -2 -1 -1 -1 -1 1 3 4 5 7 8 6 6 5 5 4 5 5 5 5 6 7 7 7 7 6 7 6 7 7 9 8 9 9 9 9
0 1 -1 -1 -2 -2 -2 -2 -2 -2 -3 -3 -2 -2 -2 -2 0 2 3 5 5 6 7 6 7 6 6 5 5 6 5 5 5 6 6 7 7 6 6 7 10 11 11 10 10 8 7
Height
1531 1528 1524 1519 1515 1510 1505 1500 1495 1490 1485 1482 1478 1475 1472 1469 1466 1463 1462 1460 1459 1457 1456 1457 1458 1456 1461 1464 1460 1459 1460 1463 1468 1472 1476 1479 1483 1487 1490 1490 1492 1493 1493 1494 1494 1494 1496
1528 1525 1522 1517 1512 1506 1501 1496 1491 1486 1481 1476 1472 1468 1465 1462 1459 1457 1456 1454 1453 1452 1451 1452 1455 1453 1457 1460 1456 1458 1459 1460 1465 1469 1473 1478 1481 1484 1486 1487 1490 1489 1491 1492 1492 1492 1494
1526 1523 1517 1513 1508 1503 1497 1492 1486 1481 1475 1471 1467 1463 1459 1456 1454 1452 1450 1448 1447 1446 1446 1448 1450 1448 1450 1450 1454 1457 1459 1460 1463 1467 1472 1475 1479 1483 1485 1486 1487 1488 1492 1492 1490 1489 1490
1525 1520 1514 1510 1505 1499 1494 1489 1483 1477 1472 1466 1462 1458 1454 1451 1449 1447 1445 1443 1443 1442 1442 1444 1445 1443 1444 1447 1453 1456 1458 1460 1464 1467 1471 1475 1479 1482 1482 1484 1485 1488 1492 1496 1488 1486 1486
1521 1517 1512 1506 1501 1495 1490 1485 1480 1474 1468 1462 1458 1454 1450 1447 1445 1442 1440 1439 1437 1438 1439 1440 1441 1442 1443 1446 1449 1453 1457 1460 1464 1467 1470 1474 1478 1481 1483 1485 1491 1489 1498 1496 1493 1482 1483
1519 1514 1509 1503 1498 1492 1487 1481 1476 1470 1464 1459 1455 1451 1447 1444 1441 1439 1437 1434 1432 1433 1435 1436 1441 1442 1439 1440 1444 1450 1455 1460 1462 1465 1470 1472 1476 1481 1483 1485 1496 1493 1495 1494 1493 1482 1480
1516 1512 1506 1500 1494 1489 1484 1477 1473 1466 1461 1456 1452 1448 1444 1441 1438 1436 1434 1430 1431 1432 1430 1429 1431 1433 1431 1438 1443 1449 1453 1457 1461 1464 1467 1470 1473 1474 1477 1478 1482 1484 1485 1489 1487 1481 1482
1514 1508 1504 1497 1491 1485 1481 1475 1470 1463 1458 1453 1448 1444 1441 1438 1435 1432 1430 1429 1428 1430 1428 1428 1430 1429 1431 1434 1441 1448 1453 1456 1459 1462 1466 1473 1472 1473 1477 1480 1483 1486 1488 1489 1485 1481 1482
1512 1507 1501 1496 1488 1483 1478 1472 1467 1461 1455 1450 1444 1441 1437 1435 1431 1428 1426 1425 1424 1427 1427 1427 1431 1432 1432 1435 1438 1444 1451 1453 1458 1463 1465 1468 1471 1474 1477 1480 1483 1485 1488 1489 1490 1485 1483
1511 1504 1498 1493 1487 1480 1476 1470 1464 1457 1452 1446 1441 1437 1434 1431 1431 1427 1424 1422 1424 1425 1426 1426 1426 1429 1434 1433 1442 1446 1450 1453 1458 1465 1466 1473 1471 1472 1477 1481 1482 1488 1484 1486 1489 1492 1499
1509 1503 1497 1491 1485 1479 1474 1468 1462 1455 1449 1442 1436 1432 1429 1428 1425 1425 1424 1421 1425 1427 1419 1423 1422 1427 1429 1432 1439 1448 1450 1453 1458 1460 1465 1472 1471 1474 1478 1477 1479 1486 1484 1487 1490 1496 1501
1508 1503 1496 1490 1484 1477 1472 1466 1459 1452 1444 1435 1429 1425 1422 1421 1422 1424 1423 1423 1427 1433 1418 1420 1419 1423 1430 1435 1440 1447 1451 1454 1458 1462 1465 1469 1470 1472 1474 1478 1479 1483 1486 1493 1497 1505 1523
1506 1501 1495 1489 1483 1477 1470 1464 1457 1448 1440 1432 1425 1423 1421 1421 1424 1425 1425 1429 1439 1434 1428 1421 1417 1424 1431 1438 1443 1447 1452 1456 1462 1469 1474 1472 1475 1473 1473 1481 1482 1484 1495 1521 1526 1517 1505
1506 1501 1494 1488 1482 1477 1469 1462 1455 1447 1441 1434 1429 1427 1426 1426 1426 1428 1429 1432 1436 1427 1425 1419 1419 1428 1435 1439 1446 1452 1454 1460 1460 1463 1476 1481 1486 1476 1475 1479 1484 1486 1492 1515 1507 1514 1503
1505 1500 1494 1488 1481 1476 1469 1462 1455 1448 1444 1439 1436 1432 1430 1431 1432 1434 1435 1433 1433 1426 1422 1416 1426 1436 1441 1444 1448 1453 1457 1458 1460 1461 1473 1485 1481 1474 1473 1476 1479 1488 1500 1495 1506 1507 1524
1505 1499 1493 1487 1481 1474 1468 1461 1455 1449 1444 1441 1439 1436 1435 1436 1435 1436 1435 1429 1430 1427 1421 1425 1436 1438 1445 1446 1451 1453 1457 1458 1460 1461 1462 1469 1482 1475 1474 1476 1479 1483 1488 1507 1523 1542 1508
1504 1498 1492 1487 1480 1474 1467 1461 1455 1449 1444 1441 1438 1439 1440 1440 1439 1439 1437 1437 1431 1429 1427 1427 1436 1438 1442 1446 1450 1453 1459 1459 1458 1461 1461 1462 1474 1484 1476 1479 1483 1487 1489 1491 1500 1511 1513
1503 1497 1491 1487 1479 1474 1468 1461 1456 1450 1445 1444 1441 1442 1443 1441 1440 1442 1440 1439 1438 1434 1428 1430 1433 1436 1441 1445 1452 1454 1460 1458 1456 1458 1464 1462 1476 1498 1483 1478 1478 1481 1486 1490 1512 1510 1509
1501 1496 1490 1486 1481 1474 1469 1463 1458 1452 1448 1445 1445 1443 1444 1442 1442 1441 1439 1437 1434 1432 1429 1428 1433 1435 1439 1447 1453 1453 1455 1455 1455 1458 1462 1464 1483 1502 1481 1484 1481 1482 1482 1484 1489 1494 1514
1502 1495 1490 1485 1481 1474 1469 1463 1458 1455 1451 1450 1448 1449 1444 1443 1444 1444 1443 1441 1436 1431 1431 1430 1434 1436 1440 1444 1446 1453 1455 1455 1455 1457 1460 1463 1477 1484 1488 1480 1482 1490 1478 1480 1486 1499 1487
1501 1496 1490 1486 1481 1476 1470 1465 1459 1455 1452 1452 1451 1453 1453 1452 1446 1446 1444 1444 1440 1439 1434 1435 1440 1439 1442 1445 1449 1452 1455 1458 1458 1460 1462 1466 1483 1488 1480 1476 1478 1478 1477 1478 1482 1473 1483
1497 1496 1490 1485 1481 1477 1472 1466 1463 1456 1453 1454 1456 1455 1453 1450 1447 1446 1446 1446 1444 1442 1441 1442 1444 1441 1442 1447 1449 1451 1454 1458 1459 1462 1464 1468 1484 1482 1480 1470 1475 1479 1471 1470 1468 1468 1464
1493 1494 1490 1485 1481 1477 1473 1468 1465 1461 1457 1457 1459 1458 1457 1449 1447 1448 1447 1445 1445 1443 1445 1445 1444 1443 1445 1450 1449 1449 1449 1451 1454 1460 1466 1469 1479 1486 1484 1471 1472 1471 1457 1455 1455 1453 1451
1492 1492 1488 1485 1480 1477 1473 1470 1467 1464 1461 1460 1461 1461 1459 1455 1451 1448 1444 1444 1445 1445 1446 1447 1445 1446 1452 1451 1452 1452 1453 1454 1457 1459 1460 1468 1471 1481 1484 1477 1470 1443 1437 1440 1444 1439 1439
1490 1488 1486 1483 1480 1476 1473 1470 1468 1466 1464 1463 1461 1461 1461 1457 1452 1447 1446 1445 1446 1446 1447 1449 1450 1451 1451 1452 1455 1458 1459 1459 1459 1460 1462 1463 1467 1473 1476 1476 1454 1440 1435 1438 1441 1434 1429
1489 1485 1484 1481 1478 1475 1472 1470 1468 1466 1464 1463 1462 1462 1461 1460 1451 1450 1447 1444 1446 1448 1448 1449 1450 1451 1452 1453 1455 1454 1454 1453 1459 1461 1462 1465 1467 1472 1469 1463 1453 1438 1433 1434 1436 1440 1425
1485 1483 1481 1479 1475 1473 1471 1469 1467 1466 1463 1461 1460 1460 1460 1458 1449 1448 1448 1444 1442 1444 1447 1448 1449 1451 1452 1455 1457 1461 1455 1450 1455 1455 1459 1463 1465 1463 1467 1462 1450 1435 1433 1434 1440 1436 1426
1482 1480 1478 1476 1473 1470 1469 1467 1466 1465 1462 1461 1460 1458 1458 1455 1446 1446 1445 1444 1442 1441 1444 1447 1451 1452 1454 1456 1457 1455 1455 1452 1452 1451 1453 1454 1457 1456 1459 1457 1454 1430 1434 1436 1428 1424 1423
1479 1476 1475 1474 1470 1467 1465 1464 1463 1462 1461 1460 1458 1457 1456 1456 1447 1444 1442 1442 1442 1443 1442 1444 1446 1447 1449 1452 1454 1452 1453 1453 1454 1452 1447 1450 1446 1448 1449 1442 1430 1430 1429 1427 1424 1423 1422
Wind_Speed
22 21 24 23 26 28 29 29 27 31 31 31 29 27 23 25 24 22 21 20 19 17 16 18 15 16 14 11 16 7 5 26 23 23 25 23 17 10 6 8 9 3 3 10 14 17 10
21 22 23 27 27 25 25 28 28 30 30 29 29 27 25 22 24 22 21 21 17 16 16 18 16 19 20 8 12 10 5 24 27 24 25 23 15 18 5 4 9 2 14 12 13 9 6
21 23 24 27 26 28 30 32 32 30 28 28 27 24 22 21 22 20 20 18 16 14 16 19 22 10 21 25 8 14 11 17 25 22 23 25 11 12 7 1 13 7 5 3 6 5 4
21 25 25 27 27 31 31 32 31 31 29 26 25 23 21 19 19 19 18 17 14 13 14 19 22 11 9 22 12 18 16 16 13 16 21 22 15 6 4 3 3 5 3 2 4 4 7
23 24 26 25 30 31 29 29 30 28 27 25 24 22 20 18 18 19 16 16 18 14 14 14 21 12 4 14 26 24 19 18 15 13 16 18 17 4 5 5 2 1 2 4 7 8 6
24 25 27 27 29 30 29 28 29 28 27 25 24 23 20 19 20 17 19 20 17 14 13 12 17 9 9 16 31 23 19 18 15 17 14 10 5 3 2 4 6 6 4 3 5 3 1
23 26 27 26 29 31 29 29 28 28 28 26 24 23 21 18 15 17 20 27 5 2 12 8 7 5 10 17 25 27 20 19 14 16 5 6 4 6 12 7 4 2 2 2 4 3 5
24 25 25 28 30 30 28 29 28 29 28 26 25 23 17 17 19 21 21 12 8 2 3 19 5 22 8 23 16 26 24 11 9 4 7 4 3 7 5 1 8 2 2 5 6 2 3
25 26 24 29 30 29 29 30 29 31 29 29 21 20 17 19 24 12 9 18 4 1 2 4 18 14 21 18 9 22 25 11 6 6 4 6 4 8 9 9 7 4 4 2 4 6 1
25 26 25 29 28 29 29 31 27 29 30 24 20 19 19 24 17 10 19 7 10 2 2 4 13 11 17 15 6 20 18 11 3 7 10 5 3 10 7 3 3 4 3 4 4 4 4
25 26 27 29 28 29 29 30 29 30 29 29 26 26 26 21 21 14 10 1 11 7 5 7 8 24 12 1 23 12 8 5 6 6 5 3 6 8 6 4 4 3 5 4 2 3 4
24 26 28 26 29 29 30 29 31 31 32 35 27 23 19 12 2 3 8 13 10 4 1 3 7 10 7 12 4 14 2 7 14 7 6 3 5 3 4 4 5 7 5 6 4 3 2
22 25 26 28 29 29 32 31 32 32 33 29 19 15 10 7 4 3 15 10 4 1 2 4 10 12 15 5 6 3 4 8 4 5 3 1 2 2 6 7 4 6 6 3 4 1 6
22 25 26 28 26 30 31 31 33 29 30 21 19 15 15 14 7 10 12 1 5 3 3 3 12 14 7 8 6 9 5 4 3 4 4 4 2 5 2 4 5 3 5 4 4 3 4
21 24 26 27 25 29 30 31 32 27 21 15 13 19 21 15 15 7 3 3 1 3 3 9 16 10 6 4 6 4 1 4 2 2 5 4 0 1 4 4 6 3 2 3 2 2 3
21 24 25 25 26 28 30 31 31 26 14 7 10 16 15 10 4 9 2 3 3 4 14 6 5 2 4 4 6 3 5 2 3 5 2 5 4 3 2 4 3 4 5 3 3 1 4
20 22 25 25 25 27 29 31 30 20 12 5 3 5 6 7 4 2 2 3 3 8 4 5 3 5 6 5 7 3 8 2 6 4 2 2 4 3 3 3 6 3 3 2 3 4 3
19 21 24 25 26 27 28 30 29 20 11 6 6 3 4 10 3 2 2 2 2 7 9 2 5 7 4 4 4 3 8 4 12 6 5 1 4 3 6 2 4 4 5 5 4 3 2
17 19 23 25 26 26 27 28 26 19 11 9 3 4 5 6 3 4 3 2 6 3 3 2 3 3 5 5 5 3 4 3 16 7 7 3 2 2 2 4 3 3 5 4 3 2 6
16 17 20 24 26 26 25 26 25 17 7 6 3 3 6 5 3 3 5 5 5 10 7 6 4 10 4 3 2 4 2 5 6 7 11 6 3 5 5 4 3 2 4 8 8 3 3
14 18 17 21 25 25 24 24 24 18 11 3 4 2 3 3 4 3 3 4 5 7 8 6 4 5 4 3 5 4 3 3 6 6 4 4 3 2 4 6 3 5 6 8 12 17 6
12 16 18 17 22 24 23 22 22 20 8 10 4 3 6 4 8 2 4 5 6 5 6 4 4 1 2 4 2 5 6 3 3 1 3 2 1 3 4 4 8 6 11 13 14 13 17
13 14 16 17 18 21 21 21 19 18 14 8 5 3 3 7 4 2 2 1 2 2 6 8 3 3 9 3 7 5 5 13 8 7 3 5 4 2 4 3 4 5 9 11 6 6 7
15 11 17 15 16 17 19 18 19 15 12 9 8 3 3 3 2 2 1 2 3 2 4 4 10 4 2 3 7 9 12 10 8 3 6 5 4 3 3 3 1 4 1 4 9 7 11
21 9 16 16 14 16 16 16 16 13 10 5 6 3 3 3 4 3 3 4 6 7 3 4 5 5 2 3 3 3 2 2 2 2 4 4 3 1 2 2 5 5 4 4 4 8 7
21 12 14 17 13 14 14 15 12 15 8 5 1 5 3 4 4 5 3 5 4 2 2 3 2 2 1 2 2 3 3 3 4 3 2 3 2 3 2 2 3 5 0 2 4 4 4
17 13 12 17 15 13 13 11 13 13 15 6 3 5 4 5 7 3 3 3 2 4 3 3 2 2 2 2 2 2 3 3 5 6 4 4 3 5 5 3 6 7 3 5 1 4 3
15 17 11 18 18 13 13 11 9 11 12 11 6 4 7 6 18 8 6 4 4 5 4 6 4 0 2 2 2 2 2 2 2 4 5 6 5 3 3 4 7 4 5 3 4 7 8
15 14 10 16 18 14 11 13 10 11 11 11 11 5 7 9 11 11 16 16 10 4 6 9 3 4 4 1 1 1 1 1 1 2 2 4 5 4 7 5 4 4 6 8 9 12 10
Wind_Direction
340 338 341 341 331 330 326 331 327 326 324 319 317 316 309 299 300 299 300 297 284 281 244 247 254 211 205 206 234 157 183 179 172 185 187 191 187 185 175 184 233 223 258 242 244 268 273
339 345 334 332 331 335 329 329 328 323 324 323 317 312 310 307 296 297 298 300 278 282 241 238 229 211 200 223 231 197 189 177 181 190 197 198 196 190 215 191 181 225 222 252 265 252 254
348 337 333 334 337 328 329 327 329 326 326 323 319 317 312 300 298 301 300 294 285 279 254 241 225 237 200 218 210 184 183 176 190 189 190 196 170 189 204 322 236 243 166 285 232 236 246
337 336 342 338 332 331 333 337 335 331 327 326 323 317 313 307 304 306 299 295 287 286 277 237 241 255 204 221 179 176 172 157 169 196 204 192 193 218 192 177 131 134 73 210 261 253 248
341 340 340 339 334 336 339 334 330 330 329 329 328 325 318 312 311 310 309 296 280 277 272 256 245 220 207 200 202 177 184 173 165 179 186 188 189 173 169 136 73 56 172 209 299 222 229
340 342 343 335 337 337 336 335 332 333 332 332 331 328 327 323 317 316 316 313 291 278 261 249 228 152 212 199 195 179 190 185 173 180 150 157 145 135 142 148 192 200 191 210 225 284 318
342 343 341 336 339 338 339 336 338 336 334 334 330 323 325 315 316 312 318 319 335 245 203 185 188 225 202 180 184 190 180 172 179 167 160 144 166 172 182 197 116 172 189 213 256 283 339
343 342 341 337 342 341 340 339 339 335 336 337 330 325 322 314 320 319 302 324 247 249 281 210 224 242 233 162 158 186 179 164 171 141 117 140 190 154 181 197 244 280 311 298 292 266 317
343 346 343 341 344 343 345 342 340 339 341 334 329 328 319 320 322 323 315 317 223 231 53 226 226 228 151 157 134 168 176 156 117 124 125 127 170 157 174 198 200 188 163 231 261 322 69
347 347 344 342 346 345 345 343 338 342 337 338 328 325 315 319 329 309 313 318 180 142 77 202 191 186 155 132 85 157 166 135 144 148 138 145 235 157 140 188 132 156 105 105 45 39 266
347 349 347 345 348 347 346 344 342 341 336 330 323 313 310 313 301 305 312 279 163 177 146 167 158 149 148 123 138 170 145 110 140 133 107 174 144 134 137 174 150 162 109 89 63 32 8
349 348 352 353 348 350 345 348 346 343 337 335 326 319 311 318 308 286 113 136 129 36 209 231 116 142 101 119 87 143 138 96 130 81 52 92 132 102 143 91 111 150 75 46 50 64 337
351 351 355 354 348 352 350 352 348 348 349 347 5 22 21 32 49 131 141 150 61 179 226 124 135 132 123 105 121 106 136 135 132 132 123 20 24 49 104 87 29 84 69 358 355 273 231
352 351 357 352 351 352 354 352 352 358 1 30 46 45 44 58 65 134 147 14 68 261 263 230 126 114 104 123 115 129 131 125 45 83 113 130 223 185 191 155 169 164 136 153 235 235 286
354 355 355 356 354 354 355 354 357 5 13 45 67 63 62 56 91 129 280 32 321 305 299 125 107 100 88 82 114 116 128 144 147 152 124 130 134 158 148 135 129 204 128 180 102 358 24
354 354 359 354 356 355 356 357 359 7 12 40 55 51 57 61 89 357 349 15 317 226 121 90 77 93 111 111 110 108 150 191 186 179 150 186 102 10 102 108 87 134 152 67 5 283 274
356 356 359 356 357 356 357 358 3 13 13 34 94 70 49 61 3 342 332 351 353 105 34 32 142 101 108 116 122 114 182 287 185 170 184 132 99 297 112 199 174 140 169 153 126 153 207
356 357 359 357 3 5 1 360 7 10 24 30 45 48 10 347 55 16 358 357 145 238 280 287 78 98 106 93 126 136 192 250 185 158 148 35 108 154 209 258 184 150 174 153 127 264 240
355 357 359 1 1 3 3 3 13 8 5 4 40 340 359 18 43 29 323 188 219 226 345 86 104 112 124 127 146 119 131 301 187 154 156 170 54 60 82 12 25 189 190 165 115 124 209
348 354 359 357 1 5 4 5 15 11 12 23 12 18 351 23 1 358 2 352 356 31 32 60 91 123 98 123 74 121 115 22 143 149 159 109 136 162 184 208 136 182 198 197 184 184 213
347 343 358 355 356 6 6 6 13 17 16 27 31 31 12 329 355 12 44 346 14 12 15 54 98 121 149 132 117 118 102 81 41 119 91 106 171 114 257 254 197 219 217 199 211 230 240
343 339 348 356 353 360 8 8 12 21 21 55 48 15 336 272 301 312 6 356 24 359 28 32 83 13 108 70 266 160 126 134 178 47 102 41 171 37 296 267 212 239 241 230 239 248 256
332 341 341 348 354 352 6 10 11 22 43 60 39 37 342 301 342 29 285 306 10 28 39 48 179 104 68 46 40 68 152 168 163 145 131 135 133 99 271 320 330 280 228 209 200 205 207
324 347 332 341 350 352 356 7 10 16 30 48 17 355 328 287 279 242 313 105 64 22 131 17 42 56 71 79 94 75 71 96 131 143 142 147 139 128 269 347 241 266 247 188 206 234 214
322 331 324 332 338 347 352 0 5 7 12 33 29 10 323 285 301 298 27 123 88 81 71 77 52 88 86 97 82 80 16 114 215 184 184 140 148 179 263 229 290 286 242 183 190 285 214
312 315 321 326 330 333 342 348 0 352 357 346 320 350 285 287 234 306 293 186 161 150 95 129 133 48 116 86 117 187 185 181 165 155 149 125 123 155 228 286 261 241 79 39 110 283 200
319 313 317 319 323 322 333 339 346 344 348 333 281 317 310 266 270 243 243 266 209 151 146 147 158 97 110 106 152 175 229 154 166 177 171 174 201 215 226 266 283 253 269 139 9 260 253
296 309 313 313 326 315 324 330 339 332 336 342 309 294 333 287 275 263 248 266 279 176 148 153 95 137 55 136 166 227 190 229 174 176 176 180 189 192 175 217 258 194 128 201 238 307 303
288 295 299 308 319 319 316 315 325 317 321 315 313 275 300 277 268 279 253 234 233 179 146 162 139 147 181 147 213 141 263 13 171 238 167 209 200 183 190 213 250 283 270 285 310 309 314